DW3664 Weather Reports


time (UTC)temp
F
wind
direction
speed
knots
gust
knots
rain 1hr
in
rain 24hr
in
rain mn
in
humidity
%
barometer
mb
20260505212224 63 24 0.9 4.3 0.00 0.00 0.00 61 1015.4
20260505211544 63 276 2.6 4.3 0.00 0.00 0.00 61 1015.4
20260505210904 62 239 0.9 6.1 0.00 0.00 0.00 63 1015.4
20260505210224 62 323 2.6 4.3 0.00 0.00 0.00 62 1015.4
20260505205544 62 284 3.5 4.3 0.00 0.00 0.00 62 1015.4
20260505204904 62 242 1.7 4.3 0.00 0.00 0.00 62 1015.8
20260505204224 62 252 0.9 3.5 0.00 0.00 0.00 63 1015.8
20260505203544 62 299 0.9 3.5 0.00 0.00 0.00 64 1015.8
20260505202904 61 176 1.7 5.2 0.00 0.00 0.00 64 1015.8
20260505202224 61 265 1.7 5.2 0.00 0.00 0.00 65 1015.8
20260505201755 61 115 0.9 3.5 0.00 0.00 0.00 62 1015.8
20260505200904 61 309 1.7 3.5 0.00 0.00 0.00 64 1015.8
20260505200224 61 294 1.7 3.5 0.00 0.00 0.00 64 1015.8
20260505195757 60 56 1.7 3.5 0.00 0.00 0.00 64 1015.8
20260505194904 61 186 1.7 2.6 0.00 0.00 0.00 63 1016.1
20260505194224 61 185 0.9 2.6 0.00 0.00 0.00 64 1016.1
20260505193544 61 217 0.9 3.5 0.00 0.00 0.00 65 1016.1
20260505192904 60 123 0.9 4.3 0.00 0.00 0.00 66 1015.8
20260505192435 60 170 0.9 3.5 0.00 0.00 0.00 66 1016.1
20260505191755 60 239 0.9 2.6 0.00 0.00 0.00 66 1015.8
20260505190904 59 247 0.9 4.3 0.00 0.00 0.00 67 1015.8
20260505190224 60 272 3.5 5.2 0.00 0.00 0.00 66 1015.8
20260505185544 60 255 0.9 3.5 0.00 0.00 0.00 66 1015.8
20260505185118 60 233 0.9 4.3 0.00 0.00 0.00 66 1015.8
20260505184224 60 245 0.9 4.3 0.00 0.00 0.00 66 1015.8
20260505183544 60 318 1.7 3.5 0.00 0.00 0.00 65 1015.8
20260505182904 60 220 0.9 3.5 0.00 0.00 0.00 65 1015.8
20260505182435 60 268 0.9 3.5 0.00 0.00 0.00 65 1015.8
20260505181543 59 233 1.7 5.2 0.00 0.00 0.00 66 1015.8
20260505180904 59 164 2.6 5.2 0.00 0.00 0.00 65 1015.8
20260505180432 59 97 0.9 4.3 0.00 0.00 0.00 66 1015.8
20260505175543 59 240 0.9 4.3 0.00 0.00 0.00 67 1015.8
20260505174903 59 100 2.6 4.3 0.00 0.00 0.00 66 1015.8
20260505174223 58 127 1.7 4.3 0.00 0.00 0.00 67 1015.8
20260505173755 58 173 2.6 4.3 0.00 0.00 0.00 68 1015.8
20260505172903 58 168 1.7 4.3 0.00 0.00 0.00 69 1015.8
20260505172436 57 148 1.7 4.3 0.00 0.00 0.00 70 1015.8
20260505171543 57 165 1.7 4.3 0.00 0.00 0.00 70 1015.8
20260505170903 57 137 1.7 5.2 0.00 0.00 0.00 71 1015.4
20260505170433 57 164 1.7 5.2 0.00 0.00 0.00 72 1015.4
20260505165543 56 158 2.6 5.2 0.00 0.00 0.00 72 1015.4
20260505164903 57 168 2.6 5.2 0.00 0.00 0.00 71 1015.4
20260505164223 56 193 1.7 4.3 0.00 0.00 0.00 72 1015.4
20260505163543 56 220 0.9 4.3 0.00 0.00 0.00 73 1015.4
20260505162903 56 179 1.7 3.5 0.00 0.00 0.00 73 1015.4
20260505162437 56 192 0.9 4.3 0.00 0.00 0.00 74 1015.4
20260505161543 56 174 2.6 4.3 0.00 0.00 0.00 72 1015.4
20260505160906 56 141 1.7 3.5 0.00 0.00 0.00 74 1015.4
20260505160223 56 90 1.7 3.5 0.00 0.00 0.00 75 1015.4
20260505152903 55 140 0.9 3.5 0.00 0.00 0.00 78 1015.4
20260505152223 55 138 0.9 2.6 0.00 0.00 0.00 79 1015.4
20260505151753 54 102 0.9 2.6 0.00 0.00 0.00 80 1015.1
20260505150903 54 343 0.0 2.6 0.00 0.00 0.00 81 1015.1
20260505150223 54 91 0.9 2.6 0.00 0.00 0.00 82 1015.1
20260505140223 53 183 1.7 3.5 0.00 0.00 0.00 83 1014.7
20260505130222 54 93 0.9 1.7 0.00 0.00 0.00 80 1014.4
20260505124902 54 203 0.9 1.7 0.00 0.00 0.00 79 1014.1
20260505124222 54 196 0.9 1.7 0.00 0.00 0.00 79 1014.1
20260505123542 54 183 0.0 1.7 0.00 0.00 0.00 79 1014.1
20260505122902 54 267 0.9 0.9 0.00 0.00 0.00 79 1014.1
20260505122222 54 208 0.0 0.9 0.00 0.00 0.00 79 1014.1
20260505121755 54 223 0.0 0.9 0.00 0.00 0.00 79 1014.1
20260505121116 54 243 0.9 1.7 0.00 0.00 0.00 79 1014.1
20260505120222 54 260 0.9 0.9 0.00 0.00 0.00 79 1014.1
20260505115543 54 306 0.9 1.7 0.00 0.00 0.00 79 1014.1
20260505114902 54 191 0.9 1.7 0.00 0.00 0.00 79 1014.1
20260505114222 54 155 0.9 1.7 0.00 0.00 0.00 79 1014.1
20260505113542 54 253 0.9 0.9 0.00 0.00 0.00 79 1014.1
20260505112903 54 247 0.0 1.7 0.00 0.00 0.00 79 1014.1
20260505112223 54 242 0.9 2.6 0.00 0.00 0.00 79 1014.1
20260505111543 54 258 0.9 2.6 0.00 0.00 0.00 79 1014.1
20260505110903 54 250 0.0 1.7 0.00 0.00 0.00 79 1013.7
20260505110223 54 326 0.9 1.7 0.00 0.00 0.00 79 1013.7
20260505101543 53 286 1.7 3.5 0.00 0.00 0.00 81 1013.7
20260505100903 53 273 1.7 3.5 0.00 0.00 0.00 81 1013.4
20260505100223 53 255 0.0 3.5 0.00 0.00 0.00 81 1013.4
20260505095544 53 280 1.7 3.5 0.00 0.00 0.00 81 1013.4
20260505094903 53 284 1.7 2.6 0.00 0.00 0.00 81 1013.4
20260505094224 54 323 0.9 1.7 0.00 0.00 0.00 80 1013.4
20260505093755 53 338 0.9 1.7 0.00 0.00 0.00 81 1013.4
20260505092903 53 295 0.9 1.7 0.00 0.00 0.00 81 1013.4
20260505092223 54 300 0.9 1.7 0.00 0.00 0.00 80 1013.4
20260505091543 54 293 0.9 1.7 0.00 0.00 0.00 80 1013.4
20260505090903 54 4 0.9 1.7 0.00 0.00 0.00 80 1013.0
20260505090223 54 8 0.9 1.7 0.00 0.00 0.00 80 1013.0
20260505085543 54 11 0.9 1.7 0.00 0.00 0.00 80 1013.0
20260505084903 54 346 0.9 0.9 0.00 0.00 0.00 81 1013.0
20260505084223 54 192 0.0 1.7 0.00 0.00 0.00 80 1013.0
20260505083544 54 327 0.9 1.7 0.00 0.00 0.00 80 1013.0
20260505082903 54 6 0.0 2.6 0.00 0.00 0.00 79 1013.0
20260505082223 55 293 1.7 2.6 0.00 0.00 0.00 78 1013.0
20260505081543 55 260 0.9 3.5 0.00 0.00 0.00 78 1013.0
20260505080903 55 290 1.7 3.5 0.00 0.00 0.00 77 1013.0
20260505080223 55 291 1.7 3.5 0.00 0.00 0.00 76 1012.7
20260505075543 56 276 1.7 5.2 0.00 0.00 0.00 76 1012.7
20260505074903 56 276 2.6 5.2 0.00 0.00 0.00 75 1012.7
20260505074222 56 280 2.6 3.5 0.00 0.00 0.00 75 1012.7
20260505073542 56 270 0.9 2.6 0.00 0.00 0.00 76 1012.4
20260505072902 56 238 0.9 2.6 0.00 0.00 0.00 75 1012.4
20260505072222 57 303 0.9 2.6 0.00 0.00 0.00 75 1012.4
20260505071542 57 290 0.9 1.7 0.00 0.00 0.00 75 1012.0
20260505070902 57 243 0.9 1.7 0.00 0.00 0.00 74 1012.0
20260505070222 57 294 0.9 3.5 0.00 0.00 0.00 74 1012.0
20260505065542 58 277 1.7 3.5 0.00 0.00 0.00 74 1012.0
20260505064902 58 271 0.9 3.5 0.00 0.00 0.00 73 1012.0
20260505064222 58 274 1.7 3.5 0.00 0.00 0.00 73 1011.7
20260505063751 58 240 0.9 2.6 0.00 0.00 0.00 73 1011.7
20260505062902 58 272 1.7 6.1 0.00 0.00 0.00 72 1011.7
20260505062222 58 275 1.7 3.5 0.00 0.00 0.00 72 1011.3
20260505061542 59 264 0.9 3.5 0.00 0.00 0.00 72 1011.3
20260505060902 59 259 1.7 3.5 0.00 0.00 0.00 72 1011.3
20260505060222 59 238 0.9 4.3 0.00 0.00 0.00 71 1011.3
20260505055542 59 251 0.9 5.2 0.00 0.00 0.00 71 1011.3
20260505054902 60 235 1.7 5.2 0.00 0.00 0.00 70 1011.3
20260505054222 60 265 1.7 5.2 0.00 0.00 0.00 69 1011.3
20260505053542 60 275 2.6 5.2 0.00 0.00 0.00 69 1011.3
20260505052902 61 271 1.7 5.2 0.00 0.00 0.00 68 1011.0
20260505052222 61 270 1.7 5.2 0.00 0.00 0.00 68 1011.0
20260505051542 62 269 2.6 4.3 0.00 0.00 0.00 67 1011.0
20260505051115 62 256 1.7 6.1 0.00 0.00 0.00 66 1011.0
20260505050436 62 267 1.7 6.1 0.00 0.00 0.00 66 1011.0
20260505041542 66 249 1.7 3.5 0.00 0.00 0.00 59 1010.3
20260505040902 67 224 1.7 4.3 0.00 0.00 0.00 58 1010.3
20260505040436 67 246 1.7 5.2 0.00 0.00 0.00 59 1010.3
20260505035751 67 264 2.6 5.2 0.00 0.00 0.00 59 1010.0
20260505034902 68 205 1.7 2.6 0.00 0.00 0.00 59 1010.0
20260505034222 68 209 0.9 5.2 0.00 0.00 0.00 60 1009.6
20260505033542 68 189 0.9 3.5 0.00 0.00 0.00 59 1009.6
20260505032902 69 202 0.9 2.6 0.00 0.00 0.00 58 1009.6
20260505032222 69 197 0.9 4.3 0.00 0.00 0.00 57 1009.3
20260505031542 70 174 1.7 4.3 0.00 0.00 0.00 56 1009.3
20260505030902 70 196 0.9 3.5 0.00 0.00 0.00 56 1009.3
20260505030222 71 187 0.9 5.2 0.00 0.00 0.00 55 1009.3
20260505025752 72 166 2.6 5.2 0.00 0.00 0.00 54 1009.3
20260505024903 72 166 1.7 5.2 0.00 0.00 0.00 54 1009.3
20260505024222 72 164 1.7 4.3 0.00 0.00 0.00 53 1009.3
20260505023542 73 206 0.9 4.3 0.00 0.00 0.00 52 1008.9
20260505022902 73 196 1.7 3.5 0.00 0.00 0.00 52 1008.9
20260505022435 74 214 0.9 3.5 0.00 0.00 0.00 53 1008.9
20260505021542 73 169 1.7 3.5 0.00 0.00 0.00 54 1008.9
20260505021111 73 145 0.9 4.3 0.00 0.00 0.00 53 1008.9
20260505020222 73 178 1.7 5.2 0.00 0.00 0.00 53 1008.9
20260505015543 74 166 1.7 3.5 0.00 0.00 0.00 52 1008.9
20260505015114 74 202 0.9 4.3 0.00 0.00 0.00 52 1008.9
20260505014222 74 188 1.7 7.8 0.00 0.00 0.00 53 1008.9
20260505013542 73 160 3.5 7.8 0.00 0.00 0.00 53 1008.9
20260505012902 74 156 3.5 7.0 0.00 0.00 0.00 53 1008.9
20260505012222 73 169 3.5 7.8 0.00 0.00 0.00 53 1008.9
20260505011542 74 162 5.2 7.8 0.00 0.00 0.00 53 1008.9
20260505010902 74 174 4.3 9.6 0.00 0.00 0.00 52 1009.3
20260505010222 74 143 3.5 6.1 0.00 0.00 0.00 52 1009.3
20260505005545 74 165 3.5 7.8 0.00 0.00 0.00 52 1009.3
20260505004902 74 167 3.5 7.8 0.00 0.00 0.00 52 1009.3
20260505004221 75 176 3.5 7.8 0.00 0.00 0.00 50 1009.3
20260505003542 74 144 3.5 8.7 0.00 0.00 0.00 51 1009.3
20260505002902 75 167 4.3 8.7 0.00 0.00 0.00 50 1009.3
20260505002224 75 189 2.6 6.1 0.00 0.00 0.00 50 1009.3
20260505001542 76 210 1.7 8.7 0.00 0.00 0.00 50 1009.3
20260505000902 75 133 5.2 8.7 0.00 0.00 0.00 52 1009.3
20260505000226 74 164 5.2 8.7 0.00 0.00 0.00 51 1009.3
20260504235754 75 154 3.5 7.8 0.00 0.00 0.00 50 1009.6
20260504235115 75 163 4.3 8.7 0.00 0.00 0.00 50 1009.6
20260504234436 75 198 2.6 6.1 0.00 0.00 0.00 50 1009.6
20260504233542 76 212 2.6 8.7 0.00 0.00 0.00 49 1009.6
20260504232902 74 168 4.3 10.4 0.00 0.00 0.00 50 1009.6
20260504232222 75 137 2.6 7.8 0.00 0.00 0.00 48 1009.6
20260504231753 75 167 2.6 7.8 0.00 0.00 0.00 49 1009.6
20260504230902 74 177 2.6 8.7 0.00 0.00 0.00 49 1010.0
20260504230222 75 234 2.6 5.2 0.00 0.00 0.00 48 1010.0
20260504225545 75 212 1.7 6.1 0.00 0.00 0.00 47 1010.0
20260504224902 75 243 1.7 4.3 0.00 0.00 0.00 47 1010.0
20260504224222 75 213 1.7 4.3 0.00 0.00 0.00 47 1010.3
20260504223542 74 237 0.9 4.3 0.00 0.00 0.00 49 1010.3
20260504222902 73 163 1.7 7.0 0.00 0.00 0.00 48 1010.3
20260504222222 73 173 3.5 7.0 0.00 0.00 0.00 49 1010.3
20260504221542 72 244 1.7 6.1 0.00 0.00 0.00 50 1010.3
20260504220902 72 94 2.6 6.1 0.00 0.00 0.00 50 1010.6
20260504220435 72 159 2.6 6.1 0.00 0.00 0.00 49 1010.6
20260504215542 72 133 1.7 6.1 0.00 0.00 0.00 50 1010.6
20260504214902 71 109 1.7 7.0 0.00 0.00 0.00 50 1010.6
20260504214222 71 176 2.6 7.0 0.00 0.00 0.00 50 1011.0
20260504213542 71 183 3.5 7.0 0.00 0.00 0.00 50 1011.0
20260504213113 70 131 1.7 6.1 0.00 0.00 0.00 51 1011.0